Terug naar catalogus

SL-12 R/B(2)

ActiefGEO
NORAD 20836·ROCKET BODY·🇷🇺 Russia

Gelanceerd Jul 29, 1974 vanaf Baikonur Cosmodrome

Loading…

TLE

VersSource: Space-Track

Epoch: Sep 14, 2026, 21:10 UTC

1 20836U 74060F   26257.88230723 -.00000357  00000-0  00000-0 0  9997
2 20836   1.1501 243.3926 0015069 241.7940 297.8048  1.00217749 46904

Volg SL-12 R/B(2) in realtime met AllMySat

Download on the App Store